Weather History for Fort Stockton, TX

Change the Weather History Date:

Saturday, September 29, 2012

  Actual Average Record
Temperature  
Mean Temperature 64 °F -  
Max Temperature 68 °F 83 °F 95 °F (1998)
Min Temperature 60 °F 59 °F 48 °F (1999)
Degree Days  
Heating Degree Days 1    
Growing Degree Days 14 (Base 50)    
Moisture  
Dew Point 61 °F    
Average Humidity 92    
Maximum Humidity 100    
Minimum Humidity 70    
Precipitation  
Precipitation 0.44 in - - ()
Sea Level Pressure  
Sea Level Pressure 30.00 in    
Wind  
Wind Speed 11 mph (NNW)    
Max Wind Speed 22 mph    
Max Gust Speed 30 mph    
Visibility 7 miles    
Events Rain    
Averages and records for this station are not official NWS values.
T = Trace of Precipitation, MM = Missing Value Source: NWS Daily Summary

Daily Weather History Graph

Daily Weather History Graph

Search for Another Location

Airport:

Trip Planner

Search our weather history database for the weather conditions in past years. The results will help you decide how hot, cold, wet, or windy it might be!

Date:

Astronomy

Sep. 29, 2012 Rise Set
Actual Time 7:44 AM CDT 7:38 PM CDT
Civil Twilight 7:20 AM CDT 8:02 PM CDT
Nautical Twilight 6:52 AM CDT 8:30 PM CDT
Astronomical Twilight 6:24 AM CDT 8:58 PM CDT
Moon 7:15 PM CDT (9/29) 7:16 AM CDT (9/29)
Length of Visible Light 12h 42m
Length of Day
11h 54m
Full, 100% of the Moon is Illuminated
Sep 29
Full
Sep 29
Full
Oct 8
Last Quarter
Oct 15
New
Oct 21
First Quarter

Hourly Weather History & Observations

Time (CDT) Temp. Dew Point Humidity Pressure Visibility Wind Dir Wind Speed Gust Speed Precip Events Conditions
12:02 AM 66.2 °F 64.4 °F 94% 29.99 in 6.0 mi West 4.6 mph - 0.01 in Rain Rain
12:53 AM 64.9 °F 63.0 °F 93% 29.87 in 10.0 mi Calm Calm - 0.04 in Rain Light Rain
1:07 AM 64.4 °F 62.6 °F 94% 29.98 in 10.0 mi Calm Calm - 0.00 in Rain Light Rain
1:15 AM 64.4 °F 62.6 °F 94% 29.98 in 8.0 mi Calm Calm - 0.00 in Rain Light Rain
1:23 AM 64.4 °F 64.4 °F 100% 29.97 in 4.0 mi Calm Calm - 0.01 in Rain Light Rain
1:53 AM 64.9 °F 64.0 °F 97% 29.86 in 10.0 mi Calm Calm - 0.01 in Rain Light Rain
2:38 AM 64.4 °F 62.6 °F 94% 29.97 in 5.0 mi NNE 9.2 mph - 0.00 in Rain Light Rain
2:53 AM 64.0 °F 63.0 °F 96% 29.86 in 1.8 mi North 13.8 mph - 0.07 in Rain Heavy Rain
3:05 AM 62.6 °F 62.6 °F 100% 29.96 in 1.5 mi North 16.1 mph - 0.05 in Rain Rain
3:14 AM 62.6 °F 62.6 °F 100% 29.96 in 2.5 mi North 17.3 mph 23.0 mph 0.06 in Rain Rain
3:18 AM 62.6 °F 60.8 °F 94% 29.97 in 3.0 mi North 18.4 mph 24.2 mph 0.07 in Rain Light Rain
3:42 AM 62.6 °F 60.8 °F 94% 29.97 in 2.5 mi North 21.9 mph 27.6 mph 0.10 in   Overcast
3:53 AM 62.1 °F 61.0 °F 96% 29.86 in 3.0 mi North 20.7 mph - 0.12 in   Overcast
4:53 AM 62.1 °F 61.0 °F 96% 29.87 in 10.0 mi North 20.7 mph 29.9 mph 0.01 in   Overcast
5:24 AM 62.6 °F 60.8 °F 94% 29.98 in 10.0 mi North 17.3 mph - 0.01 in Rain Light Rain
5:45 AM 60.8 °F 60.8 °F 100% 29.99 in 5.0 mi North 19.6 mph 25.3 mph 0.01 in Rain Light Rain
5:53 AM 61.0 °F 60.1 °F 97% 29.89 in 8.0 mi North 19.6 mph - 0.02 in Rain Light Rain
6:53 AM 61.0 °F 60.1 °F 97% 29.91 in 5.0 mi North 15.0 mph - 0.06 in Rain Light Rain
7:30 AM 60.8 °F 60.8 °F 100% 30.03 in 5.0 mi NNW 13.8 mph - 0.01 in Rain Light Rain
7:53 AM 61.0 °F 60.1 °F 97% 29.94 in 8.0 mi NW 16.1 mph - 0.01 in Rain Light Rain
8:32 AM 62.6 °F 60.8 °F 94% 30.04 in 10.0 mi NNW 15.0 mph - 0.01 in   Overcast
8:39 AM 62.6 °F 60.8 °F 94% 30.04 in 10.0 mi NNW 13.8 mph - 0.01 in   Overcast
8:51 AM 62.6 °F 60.8 °F 94% 30.05 in 10.0 mi NNW 15.0 mph - 0.01 in   Overcast
8:53 AM 62.1 °F 60.1 °F 93% 29.95 in 10.0 mi NNW 13.8 mph - 0.01 in   Overcast
9:21 AM 62.6 °F 60.8 °F 94% 30.06 in 10.0 mi NNW 15.0 mph - N/A   Overcast
9:28 AM 62.6 °F 60.8 °F 94% 30.07 in 10.0 mi NNW 15.0 mph - N/A   Overcast
9:53 AM 62.1 °F 60.1 °F 93% 29.98 in 2.0 mi NW 15.0 mph 24.2 mph 0.01 in Rain Light Rain
10:01 AM 62.6 °F 60.8 °F 94% 30.08 in 2.0 mi NW 19.6 mph 24.2 mph 0.01 in Rain Light Rain
10:15 AM 62.6 °F 60.8 °F 94% 30.08 in 3.0 mi North 13.8 mph - 0.01 in Rain Light Rain
10:53 AM 62.1 °F 60.1 °F 93% 29.99 in 5.0 mi NW 16.1 mph - 0.02 in Rain Light Rain
11:00 AM 62.6 °F 60.8 °F 94% 30.09 in 2.5 mi NW 15.0 mph 24.2 mph 0.01 in Rain Light Rain
11:05 AM 62.6 °F 60.8 °F 94% 30.09 in 1.8 mi NW 15.0 mph - 0.02 in Rain Rain
11:13 AM 62.6 °F 60.8 °F 94% 30.09 in 2.0 mi NW 17.3 mph - 0.03 in Rain Light Rain
11:27 AM 62.6 °F 60.8 °F 94% 30.09 in 3.0 mi NW 16.1 mph - 0.04 in Rain Light Rain
11:37 AM 62.6 °F 60.8 °F 94% 30.09 in 5.0 mi NNW 17.3 mph 21.9 mph 0.04 in Rain Light Rain
11:42 AM 62.6 °F 60.8 °F 94% 30.09 in 6.0 mi NW 18.4 mph 23.0 mph 0.04 in Rain Light Rain
11:53 AM 62.1 °F 60.1 °F 93% 29.99 in 6.0 mi NNW 19.6 mph - 0.05 in Rain Light Rain
12:18 PM 62.6 °F 60.8 °F 94% 30.09 in 9.0 mi NNW 16.1 mph - 0.00 in Rain Light Rain
12:39 PM 62.6 °F 60.8 °F 94% 30.09 in 2.5 mi NNW 17.3 mph - 0.00 in Rain Light Rain
12:53 PM 62.1 °F 60.1 °F 93% 29.99 in 4.0 mi NNW 13.8 mph - 0.01 in Rain Light Rain
1:18 PM 62.6 °F 60.8 °F 94% 30.08 in 10.0 mi NNW 17.3 mph - 0.00 in Rain Light Rain
1:38 PM 62.6 °F 60.8 °F 94% 30.08 in 10.0 mi NNW 19.6 mph - 0.00 in Rain Light Rain
1:53 PM 63.0 °F 61.0 °F 93% 29.99 in 7.0 mi NW 20.7 mph - 0.00 in Rain Light Rain
2:01 PM 62.6 °F 60.8 °F 94% 30.08 in 8.0 mi NNW 17.3 mph - 0.00 in Rain Light Rain
2:49 PM 64.4 °F 60.8 °F 88% 30.07 in 10.0 mi NNW 16.1 mph - 0.00 in   Overcast
2:53 PM 66.0 °F 62.1 °F 87% 29.97 in 10.0 mi NNW 16.1 mph - 0.00 in   Overcast
3:00 PM 64.4 °F 60.8 °F 88% 30.07 in 10.0 mi NNW 16.1 mph - 0.00 in Rain Light Rain
3:18 PM 64.4 °F 60.8 °F 88% 30.06 in 10.0 mi NNW 15.0 mph - 0.00 in Rain Light Rain
3:25 PM 66.2 °F 60.8 °F 83% 30.06 in 10.0 mi NNW 12.7 mph - 0.00 in Rain Light Rain
3:53 PM 66.9 °F 61.0 °F 81% 29.95 in 10.0 mi NW 16.1 mph - 0.00 in   Overcast
4:02 PM 66.2 °F 60.8 °F 83% 30.06 in 10.0 mi NNW 16.1 mph - N/A   Overcast
4:24 PM 66.2 °F 60.8 °F 83% 30.05 in 10.0 mi NW 13.8 mph - N/A   Overcast
4:53 PM 66.0 °F 59.0 °F 78% 29.95 in 10.0 mi NW 13.8 mph - N/A   Overcast
5:53 PM 68.0 °F 59.0 °F 73% 29.94 in 10.0 mi NNW 11.5 mph - N/A   Overcast
6:53 PM 68.0 °F 57.9 °F 70% 29.95 in 10.0 mi NNW 8.1 mph - N/A   Mostly Cloudy
7:53 PM 64.9 °F 59.0 °F 81% 29.96 in 10.0 mi NW 4.6 mph - N/A   Scattered Clouds
8:53 PM 64.9 °F 59.0 °F 81% 29.98 in 10.0 mi NW 5.8 mph - N/A   Overcast
9:53 PM 64.0 °F 59.0 °F 84% 30.00 in 10.0 mi Calm Calm - 0.00 in   Mostly Cloudy
10:53 PM 62.1 °F 59.0 °F 90% 30.01 in 10.0 mi Calm Calm - N/A   Clear
11:53 PM 62.1 °F 57.9 °F 86% 30.01 in 10.0 mi Calm Calm - N/A   Clear